Location: Barcelona
(41.3829°N, 2.1774°E)
Time: 20:58:38
(UTC+00:00)

ISS - Pass Details

Date: 10 July 2025
Orbit: 413 x 417 km, 51.6° (Epoch: 13 July)

Event Time Altitude Azimuth Distance (km) Brightness Sun altitude
Rises 02:24:46 0° 306° (NW) 2,358 0.1 -17.7°
Reaches altitude 10° 02:26:52 10° 307° (NW) 1,493 -1.0 -17.5°
Maximum altitude 02:30:13 80° 33° (NNE) 427 -3.7 -17.1°
Drops below altitude 10° 02:33:34 10° 123° (ESE) 1,487 -0.9 -16.8°
Sets 02:35:39 0° 124° (SE) 2,347 0.1 -16.5°
